Погода Кепино

Поиск расширенной информации на нашем сайте:

Полезная информация:

Новости сайта



02.01.2020
Опубликован Долгосрочный прогноз погоды по городам России и ближнего зарубежья на январь 2020 года.
Карты: Прогноз на январь и февраль 2020 года, Сравнение прогнозируемой аномалии приземной температуры воздуха на январь 2020 года по разным моделям.




Погода Кепино - сегодня

Время (UTC), дата Ветер
(°,м/с) 
Видим.   Явления Облачность Т
(°С)
Тd
(°С)
f(%) Тe
(°С)
Pmin
(гПа)
dP
(гПа)
Po
(мм)
O2
(г/м3)
Тmin Tmax R s Состояние
почвы
03 29.11.20 190 (Ю) 10 км    10/0 верхняя 
[Ci fib]
-12.1 -12.4 98 -12  1037.9  -0.4  771  326  -12.1      равномерный
сухой снег
100% 
06 29.11.20 200 (Ю) 10 км    4/0 верхняя 
[Ci fib]
-13.1 -13.5 97 -13  1037.8  -0.1  771  328  -13.1         
09 29.11.20 180 (Ю) 10 км    9/9 300 м 
[St]
-11.3 -11.4 99 -13  1037.4  -0.3  771  325           
12 29.11.20 190 (Ю) 10 км    10/0 верхняя 
[Ci]
-10.7 -11 98 -13  1036.4  -1  770  324           
15 29.11.20 200 (Ю) 10 км    10/10 600 м 
[Sc]
-8.6 -8.6 100 -10  1035.9  -0.4  770  321    -8.6       
18 29.11.20 200 (Ю) 10 км    10/10 600 м 
[Sc]
-8.3 -8.3 100 -10  1036  0.1  770  321           
21 29.11.20 180 (Ю) 10 км    10/10 600 м 
[Sc]
-6.7 -6.7 100 -8  1035.4  -0.6  770  319           
00 30.11.20 200 (Ю) 10 км    10/10 600 м 
[Sc]
-7.1 -7.1 100 -9  1034.1  -1.3  769  319           
03 30.11.20 200 (Ю) 10 км    10/10 600 м 
[Sc]
-6.2 -6.2 100 -8  1033  -1  768  317  -9.1      равномерный
сухой снег
100% 
06 30.11.20 180 (Ю) 10 км    10/10 600 м 
[Sc]
-5.2 -5.2 100 -7  1031.7  -1.3  767  316           
09 30.11.20 190 (Ю) 10 км    10/10 300 м 
[St]
-4.6 -4.6 100 -6  1031.2  -0.5  767  315           
12 30.11.20 180 (Ю) 10 км    10/10 600 м 
[Sc]
-4 -4 100 -5  1030  -1.2  766  314           
15 30.11.20 170 (Ю) 10 км    10/10 600 м 
[Sc]
-3.5 -3.5 100 -5  1028.3  -1.6  764  312    -3.5       
18 30.11.20 170 (Ю) 10 км    10/10 600 м 
[Sc]
-2.6 -2.6 100 -4  1026.6  -1.7  763  311           
21 30.11.20 170 (Ю) 10 км    10/10 600 м 
[Sc]
-1.8 -1.9 99 -1  1024.6  -1.9  762  309           
00 01.12.20 170 (Ю) 4000 м  слаб. ливневой снег  10/10 300 м кучево-дожд. 
[Cb cap]
-1.4 -1.4 100 -2  1022.8  -1.7  760  308           
03 01.12.20 160 (Ю) 4000 м  слаб. ливневой снег  10/10 600 м кучево-дожд. 
[Cb cap]
-0.8 -0.8 100 1021.2  -1.5  759  307  -3.5    0.5  равномерный
сухой снег
100% 
06 01.12.20 190 (Ю) 4000 м  слаб. ливневой снег  10/10 300 м кучево-дожд. 
[Cb cap]
-0.5 -0.5 100 -1  1020.4  -0.8  759  306           
09 01.12.20 200 (Ю) 10 км  {ливн. осадки}  9/9 600 м 
[Sc]
-0.3 -0.7 97 -1  1020.5  0.1  759  306           
12 01.12.20 200 (Ю) 10 км  {ливн. осадки}  10/10 600 м 
[Sc]
-0.6 -1.3 95 -1  1020.2  -0.3  758  306           
15 01.12.20 230 (ЮЗ) 10 км  {ливн. осадки}  10/10 600 м 
[Sc]
-0.9 -2.1 92 -3  1020.4  0.2  759  307    -0.1  0.5     
18 01.12.20 210 (ЮЗ) 10 км  {ливн. осадки}  10/10 600 м 
[Sc]
-1.6 -2.6 93 -3  1020.6  0.2  759  308           
21 01.12.20 210 (ЮЗ) 10 км    10/10 600 м 
[Sc]
-1.3 -2 95 -2  1020.9  0.3  759  308           
00 02.12.20 180 (Ю) 4000 м  слаб. ливневой снег  9/9 600 м кучево-дожд. 
[Cb cap]
-1.3 -1.5 99 -2  1020.5  -0.4  759  307           
03 02.12.20 тихо ()   4000 м  слаб. ливневой снег  10/4 600 м кучево-дожд., средняя 
[Cb cap|Ac trans]
-2.1 -2.1 100 -2  1020.8  0.3  759  308  -2.1    0.5  равномерный
сухой снег
100% 
Время (UTC), дата Ветер
(°,м/с) 
Видим.   Явления Облачность Т
(°С)
Тd
(°С)
f(%) Тe
(°С)
Pmin
(гПа)
dP
(гПа)
Po
(мм)
O2
(г/м3)
Тmin Tmax R s Состояние
почвы

Для получения пояснительной информации подведите курсор к названию столбца.

ПОГОДА Кепино - архив

Всё, что Вы хотите узнать о погоде Кепино - удобно и подробно!

Выберите нужную дату (начиная с 1 января 2019* года) и нажмите кнопку "Найти".
Будут отображены архивные сводки погоды по пункту Кепино, начиная с указанной даты.


Отображать данные в формате CSV (для использования в таблицах Excel)


Внимание! Наш архив погоды предназначен исключительно для личного некоммерческого использования в познавательных целях. Если Вам необходимы официальные справки о состоянии погоды (для производственных, юридических, коммерческих и т.п. целей), обращайтесь в органы Росгидромета.

*Примечание: данная дата относится к архиву по метеостанциям СССР (Россия, СНГ, Балтия).
Архив по метеостанциям Зарубежной Европы и Азии (кроме Китая) хранится 10 дней, по другим регионам земного шара (Китай, Африка, Америка, Австралия, Океания) - 1 день.

Кепино - район местоположения метеостанции


Название, широта, долгота, высота метеостанции:
Кепино 65.4°ш. 41.8°д. 74 м над ур. моря [Российская Федерация]

Дополнительная информация

В oтличие oт бoльшинства пoгoдных сайтoв мы публикуем пoдрoбную метеoинфoрмацию в детальнoм прoфессиoнальнoм фoрмате.

Характеристики температуры и влажнoсти вoздуха измеряются на высoте 2 м в тени вдали oт зданий и деревьев.
Скoрoсть ветра измеряется на высoте 10 м (на урoвне рoста челoвека скoрoсть ветра ниже в 1.5-2 раза). Если метеoстанция нахoдится в гoрoде или в лесу, тo скoрoсть ветра занижена на 2-4 м/с пo сравнению с oткрытым местoм. Скoрoсть ветра над акватoриями крупных рек и oзёр, а также на вершинах хoлмoв на 2-5 м/с выше, чем в oбычных услoвиях.
Атмoсфернoе давление в разных тoчках местнoсти мoжет значительнo oтличаться oт давления на метеoстанции, в зависимoсти oт услoвий рельефа (при пoдъёме на 10 м давление пoнижается примернo на 1 мм рт.ст.).